Location: El Corozo
(10.5833°N, 66.9667°W)
Time: 02:03:46
(UTC+00:00)

Cosmos 2219 Rocket - Pass Details

Date: 23 May 2024
Orbit: 827 x 846 km, 71.0° (Epoch: 12 June)

Event Time Altitude Azimuth Distance (km) Brightness Sun altitude
Rises 08:47:54 0° 338° (NNW) 3,390 5.4 -18.2°
Reaches altitude 10° 08:50:21 10° 335° (NNW) 2,457 4.6 -17.6°
Maximum altitude 08:55:55 63° 255° (WSW) 935 2.1 -16.4°
Drops below altitude 10° 09:01:31 10° 175° (S) 2,461 4.4 -15.2°
Sets 09:03:59 0° 171° (S) 3,396 5.2 -14.6°
